Miscellaneous Local Product
Issued by NWS North Platte, NE

Home | Current Version | Previous Version | Text Only | Print | Product List | Glossary On
Versions: 1 2 3 4 5 6 7 8 9 10 11 12 13 14 15 16 17 18 19 20 21 22 23 24 25 26 27 28 29 30 31 32 33 34 35 36 37 38 39 40 41 42 43 44 45 46 47 48 49 50
148
AXUS43 KLBF 221810
MISLBF


WESTERN AND NORTH CENTRAL NEBRASKA HOURLY WEATHER ROUNDUP
NATIONAL WEATHER SERVICE NORTH PLATTE NE
100 PM CDT THU JUN 22 2017

NOTE: "FAIR" INDICATES FEW OR NO CLOUDS BELOW 12,000 FEET WITH NO
SIGNIFICANT WEATHER AND/OR OBSTRUCTIONS TO VISIBILITY.

NOTE: STATIONS NOT REPORTING VARIABLES SUCH AS SKY/WEATHER OR
PRESSURE ARE PROVIDED BY RAWS AND APRS NETWORKS AND ARE NOT UNDER
NATIONAL WEATHER SERVICE QUALITY CONTROL.

...OBSERVATIONS IN AND NEAR THE EASTERN PANHANDLE OF NEBRASKA...

CITY           SKY/WX    TMP DP  RH WIND       PRES   REMARKS
PINE RIDGE     CLOUDY    71  54  54 N17       29.93S
GORDON         CLOUDY    71  53  54 N15G21    29.92S
CHADRON        MOSUNNY   74  53  48 NE6G18    29.93S
ALLIANCE       MOSUNNY   74  54  49 N16G30    29.92R
SIDNEY         SUNNY     79  52  38 N26G36    29.91R
CRESCENT LAKE    N/A     77  55  46 N16G30      N/A
$$

...OBSERVATIONS IN NORTHERN NEBRASKA AND FAR SOUTHERN SOUTH DAKOTA...

CITY           SKY/WX    TMP DP  RH WIND       PRES   REMARKS
WINNER         PTSUNNY   69  55  60 N15       29.85R
VALENTINE      CLOUDY    69  54  58 N15       29.87R
THEDFORD       MOSUNNY   78  57  47 NE23G30   29.82R
AINSWORTH      CLOUDY    74  58  57 N18G30    29.83R
O`NEILL        CLOUDY    80  59  49 NE20G26   29.76R
ORD            PTSUNNY   85  67  54 N22G32    29.67R
BROKEN BOW     MOSUNNY   83  65  54 N20G30    29.71R
VALENTINE NWR    N/A     72  57  59 N13G22      N/A
HALSEY           N/A     77  55  46 NE13G25     N/A
BUTTE            N/A     71  58  64 N14G24      N/A
CHAMBERS         N/A     82  58  43 E5G13       N/A
$$

...OBSERVATIONS IN SOUTHWEST NEBRASKA AND FAR NORTHEAST COLORADO...

CITY           SKY/WX    TMP DP  RH WIND       PRES   REMARKS
WRAY           FAIR      90  50  25 N24G31    29.83S
IMPERIAL       SUNNY     86  55  34 N22G35    29.79R
OGALLALA       SUNNY     83  56  39 N21G28    29.83R
NORTH PLATTE   MOSUNNY   85  64  49 N20G30    29.75R
MCCOOK         SUNNY     96  58  27 NW18G28   29.68S HX  95
LEXINGTON      SUNNY     89  59  35 N14       29.68R
STAPLETON        N/A     77  59  53 E8G17       N/A
GOTHENBURG       N/A     85  54  34 N14         N/A
CALLAWAY         N/A     85  63  47 N14         N/A
$$

...OBSERVATIONS IN CENTRAL LINCOLN COUNTY AREA...

CITY           SKY/WX    TMP DP  RH WIND       PRES   REMARKS
N.P. AIRPORT   MOSUNNY   85  64  49 N20G30    29.75R
N.P. DOWNTOWN    N/A     81  63  53 NE13G29     N/A
N.P. HILLCREST   N/A     81  62  51 NE23G32     N/A
$$

...SOME OBSERVATIONS FROM AROUND THE REGION...

CITY           SKY/WX    TMP DP  RH WIND       PRES   REMARKS
DENVER         MOSUNNY   88  43  20 NE20G28   29.92S
LIMON          SUNNY     92  40  16 N18       29.92F
ASPEN          SUNNY     79  40  24 NE6       30.14F
LARAMIE        SUNNY     77  40  26 NW12G20   30.08S
CASPER         SUNNY     68  36  30 NE9       30.05F
CHEYENNE       SUNNY     71  41  33 NE23G32   30.02F
SCOTTSBLUFF    SUNNY     79  51  37 NE17G26   29.92F
GRAND ISLAND   CLOUDY    89  66  46 S5        29.65R HX  91
OMAHA          PTSUNNY   86  67  52 S12       29.65F
SIOUX FALLS    CLOUDY    75  65  70 NE8       29.75R
PIERRE         MOSUNNY   73  48  41 NE12G18   29.84R
RAPID CITY     MOSUNNY   69  45  41 N16G26    29.95F
BISMARCK       SUNNY     75  41  29 NW14G26   29.83F
KANSAS CITY    MOSUNNY   85  71  63 S15       29.72F HX  90
HILL CITY      SUNNY     95  65  37 VRB6      29.64F HX  97
WICHITA        MOSUNNY   87  69  54 S17G24    29.70F HX  91
DODGE CITY     SUNNY     88  63  43 S15       29.73F
OKLAHOMA CITY  MOSUNNY   87  61  41 VRB7      29.74F
DALLAS         CLOUDY    84  72  67 N6        29.70S
AMARILLO       SUNNY     91  56  30 VRB5      29.83F
$$




USA.gov is the U.S. government's official web portal to all federal, state and local government web resources and services.